sat.trackr.live / text

‹ back to catalog

MESAT1

NORAD 60209 · 2024-125G

PAYLOAD ACTIVE UNKNOWN

§ Identity

Operator
Country
US
Launch date
2024-07-04
Launch site
AFWTR
Launch vehicle
Mass (kg)
RCS (m²)

Purposes: comms

External: N2YO · Heavens-Above · Gunter

§ Orbital elements

Epoch: 2026-05-25T02:32:54.281184Z

Period
92.28 min
Inclination
97.2333°
Eccentricity
0.0008145
Mean motion
15.60523881 rev/d
Perigee alt
380.6 km
Apogee alt
391.7 km
Semi-major
6,764.3 km
B*
5.6470e-4
RAAN
2.1031°
Arg perigee
303.1644°
Mean anomaly
56.8831°
Rev number
10,596

§ Raw data

MESAT11 60209U 24125G   26145.10618381  .00046678  00000+0  56470-3 0  99922 60209  97.2333   2.1031 0008145 303.1644  56.8831 15.60523881105963

JSON: /api/v1/satellites/60209 · /tle

For live sub-satellite position, see the globe view (requires WebGL).

§ Visibility from observer

Set your observer location to see the next 7 days of passes ≥ 10°. The values pass through the URL so the page stays shareable.

No JS? Fill the form by hand. The geolocation button needs JavaScript.

§ Radio — SatNOGS DB

ModeDescriptionDownlinkUplink
BPSK GlobalStar EyeStar 2M32G1D 1.616 GHz
BPSK UHF TLM 1k2 BPSK 435.800 MHz
USB Mode V/U - SSB - Transponder (inactive) 435.810 MHz–435.840 MHz 145.910 MHz–145.940 MHz

3 transmitters · refreshed weekly from db.satnogs.org